User: anonymous   Login
Location: Unspecified
(0.0000°N, 0.0000°E)
Time: 09:00:02
(UTC+00:00)
Language:

STARLINK-3732 - Orbit

View from above orbital plane
View from above orbital plane
View from above satellite
View from above satellite

Ground track
Ground track

The orbit is defined by the following mean orbital elements,

1 52126U          26145.53570101 +.00000000 +00000-0 +52845-3 0 00006
2 52126  53.2125  84.1451 0001498  92.0632 268.0532 15.08796572    09
Epoch (UTC): 25 May 2026 12:51:24
Eccentricity: 0.0001498
inclination: 53.2125°
perigee height: 539 km
apogee height: 541 km
right ascension of ascending node: 84.1451°
argument of perigee: 92.0632°
revolutions per day: 15.08796572
mean anomaly at epoch: 268.0532°

The dashed part of the orbit path shows where the satellite is in the earth's shadow,  

DLR